Terminal Aerodrome Forecast
Issued by NWS Chicago, IL

Home | Current Version | Previous Version | Graphics & Text | Print | Product List | Glossary On
Versions: 1 2 3 4 5 6 7 8 9 10 11 12 13 14 15 16 17 18 19 20 21 22 23 24 25 26 27 28 29 30 31 32 33 34
000
FTUS43 KLOT 301100
TAFRFD
TAF
KRFD 301130Z 3012/3112 28003KT P6SM SCT080 SCT100
     FM301500 30009KT P6SM SCT045 SCT090
     FM301900 31009KT P6SM VCSH BKN045
     FM310200 25003KT P6SM SCT060=

USA.gov is the U.S. government's official web portal to all federal, state and local government web resources and services.